Weather History for LEMD - January, 2013

Change the Weather History Date:

Wednesday, January 2, 2013

  Actual Average Record
Temperature  
Mean Temperature 42 °F -  
Max Temperature 52 °F 49 °F 57 °F (2005)
Min Temperature 32 °F 31 °F 21 °F (2015)
Degree Days  
Heating Degree Days 23    
Moisture  
Dew Point 35 °F    
Average Humidity 81    
Maximum Humidity 100    
Minimum Humidity 42    
Precipitation  
Precipitation 0.00 in 0.05 in - ()
Sea Level Pressure  
Sea Level Pressure 30.30 in    
Wind  
Wind Speed 5 mph ()    
Max Wind Speed 23 mph    
Max Gust Speed -    
Visibility 4.0 miles    
Events Fog    
Averages and records for this station are not official NWS values.
T = Trace of Precipitation, MM = Missing Value Source: Averaged Metar Reports

Daily Weather History Graph

Daily Weather History Graph

Search for Another Location

Airport or City:

Trip Planner

Search our weather history database for the weather conditions in past years. The results will help you decide how hot, cold, wet, or windy it might be!

Date:

Astronomy

Jan. 02, 2013 Rise Set
Actual Time 8:37 AM CET 5:59 PM CET
Civil Twilight 8:06 AM CET 6:29 PM CET
Nautical Twilight 7:32 AM CET 7:04 PM CET
Astronomical Twilight 6:59 AM CET 7:37 PM CET
Moon 11:18 PM CET (1/2) 11:11 AM CET (1/2)
Length of Visible Light 10h 22m
Length of Day
9h 21m
Waning Gibbous, 77% of the Moon is Illuminated
Jan 2
Waning Gibbous
Jan 5
Last Quarter
Jan 11
New
Jan 19
First Quarter
Jan 27
Full

Hourly Weather History & Observations

Time (CET) Temp. Windchill Dew Point Humidity Pressure Visibility Wind Dir Wind Speed Gust Speed Precip Events Conditions
12:00 AM 35.6 °F - 35.6 °F 100% 30.24 in 5.0 mi North 1.2 mph - N/A   Unknown
12:30 AM 35.6 °F - 35.6 °F 100% 30.24 in 5.0 mi Variable 2.3 mph - N/A   Partly Cloudy
1:00 AM 35 °F - 33 °F 88% 30.34 in 3 mi North 2.3 mph - -   Mist
1:00 AM 35.6 °F - 35.6 °F 100% 30.24 in 5.0 mi North 2.3 mph - N/A   Partly Cloudy
1:30 AM 33.8 °F - 33.8 °F 100% 30.24 in 5.0 mi Variable 2.3 mph - N/A   Partly Cloudy
2:00 AM 35.6 °F - 35.6 °F 100% 30.24 in 1.2 mi Calm Calm - N/A Fog Patches of Fog
2:30 AM 35.6 °F - 35.6 °F 100% 30.24 in 1.0 mi Variable 2.3 mph - N/A Fog Patches of Fog
3:00 AM 35.6 °F - 35.6 °F 100% 30.27 in 0.2 mi Calm Calm - N/A Fog Fog
3:30 AM 35.6 °F - 35.6 °F 100% 30.27 in 0.2 mi Calm Calm - N/A Fog Fog
4:00 AM 35.6 °F - 35.6 °F 100% 30.27 in 0.2 mi Variable 1.2 mph - N/A Fog Fog
4:30 AM 35.6 °F - 35.6 °F 100% 30.27 in 0.2 mi Calm Calm - N/A Fog Fog
5:00 AM 35.6 °F - 35.6 °F 100% 30.27 in 0.2 mi Variable 1.2 mph - N/A Fog Fog
5:30 AM 35.6 °F - 35.6 °F 100% 30.27 in 0.2 mi Variable 1.2 mph - N/A Fog Fog
6:00 AM 33.8 °F - 33.8 °F 100% 30.27 in 0.2 mi Variable 1.2 mph - N/A Fog Fog
6:08 AM 33.8 °F - 33.8 °F 100% 30.27 in 0.5 mi WNW 2.3 mph - N/A Fog Fog
6:23 AM 33.8 °F - 33.8 °F 100% 30.27 in 0.9 mi Variable 2.3 mph - N/A Fog Patches of Fog
6:30 AM 33.8 °F - 33.8 °F 100% 30.27 in 0.9 mi NNE 2.3 mph - N/A Fog Patches of Fog
6:50 AM 33.8 °F - 33.8 °F 100% 30.27 in 1.9 mi NNW 2.3 mph - N/A Fog Patches of Fog
7:00 AM 33 °F - 32 °F 93% 30.38 in 2 mi SSE 4.6 mph - -   Light Sandstorm
7:00 AM 33.8 °F 30.8 °F 33.8 °F 100% 30.27 in 3.1 mi SE 3.5 mph - N/A Fog Patches of Fog
7:30 AM 33.8 °F 29.6 °F 33.8 °F 100% 30.27 in 3.1 mi SE 4.6 mph - N/A Fog Patches of Fog
8:00 AM 35.6 °F - 35.6 °F 100% 30.30 in 3.1 mi Variable 2.3 mph - N/A Fog Patches of Fog
8:30 AM 35.6 °F 32.8 °F 35.6 °F 100% 30.30 in 3.1 mi South 3.5 mph - N/A Fog Patches of Fog
8:35 AM 32.0 °F 28.7 °F 32.0 °F 100% 30.30 in 1.9 mi SSE 3.5 mph - N/A Fog Patches of Fog
8:36 AM 32.0 °F 28.7 °F 32.0 °F 100% 30.30 in 1.9 mi SSE 3.5 mph - N/A Fog Patches of Fog
9:00 AM 32.0 °F 28.7 °F 32.0 °F 100% 30.30 in 1.9 mi SSE 3.5 mph - N/A Fog Patches of Fog
9:30 AM 32.0 °F - 32.0 °F 100% 30.33 in 1.9 mi South 2.3 mph - N/A Fog Patches of Fog
10:00 AM 35.6 °F 32.8 °F 35.6 °F 100% 30.33 in 1.9 mi South 3.5 mph - N/A Fog Patches of Fog
10:30 AM 37.4 °F 34.9 °F 37.4 °F 100% 30.33 in 5.6 mi South 3.5 mph - N/A   Scattered Clouds
11:00 AM 39.2 °F 37.0 °F 37.4 °F 93% 30.33 in 6.2 mi South 3.5 mph - N/A   Scattered Clouds
11:30 AM 44.6 °F - 35.6 °F 71% 30.36 in 6.2 mi WNW 2.3 mph - N/A   Scattered Clouds
12:00 PM 48.2 °F - 37.4 °F 66% 30.33 in - North 8.1 mph - N/A   Clear
1:00 PM 51 °F - 35 °F 42% 30.32 in 19 mi North 18.4 mph - -   Clear
1:00 PM 51.8 °F - 35.6 °F 54% 30.30 in - North 17.3 mph - N/A   Clear
1:30 PM 51.8 °F - 35.6 °F 54% 30.30 in - North 17.3 mph - N/A   Clear
2:00 PM 51.8 °F - 37.4 °F 58% 30.30 in 6.2 mi North 16.1 mph - N/A   Partly Cloudy
2:30 PM 51.8 °F - 35.6 °F 54% 30.30 in 6.2 mi North 17.3 mph - N/A   Partly Cloudy
3:00 PM 51.8 °F - 35.6 °F 54% 30.30 in 6.2 mi North 15.0 mph - N/A   Partly Cloudy
3:30 PM 51.8 °F - 35.6 °F 54% 30.30 in 6.2 mi North 11.5 mph - N/A   Partly Cloudy
4:00 PM 51.8 °F - 35.6 °F 54% 30.30 in 6.2 mi North 12.7 mph - N/A   Partly Cloudy
4:30 PM 51.8 °F - 35.6 °F 54% 30.30 in 6.2 mi North 17.3 mph - N/A   Partly Cloudy
5:00 PM 50.0 °F - 35.6 °F 58% 30.30 in 6.2 mi North 11.5 mph - N/A   Partly Cloudy
5:30 PM 50.0 °F - 35.6 °F 58% 30.30 in 6.2 mi North 23.0 mph - N/A   Partly Cloudy
6:00 PM 48.2 °F - 33.8 °F 58% 30.30 in 6.2 mi North 17.3 mph - N/A   Partly Cloudy
6:30 PM 48.2 °F - 33.8 °F 58% 30.30 in - North 23.0 mph - N/A   Clear
7:00 PM 48 °F - 33 °F 44% 30.34 in 19 mi North 23.0 mph - -   Clear
7:00 PM 48.2 °F - 33.8 °F 58% 30.30 in - North 21.9 mph - N/A   Clear
7:30 PM 48.2 °F - 33.8 °F 58% 30.33 in - North 20.7 mph - N/A   Clear
8:00 PM 46.4 °F 39.0 °F 35.6 °F 66% 30.33 in - North 19.6 mph - N/A   Clear
8:30 PM 46.4 °F 39.8 °F 35.6 °F 66% 30.33 in - North 16.1 mph - N/A   Clear
9:00 PM 46.4 °F 40.4 °F 35.6 °F 66% 30.33 in - North 13.8 mph - N/A   Clear
9:30 PM 46.4 °F 39.8 °F 35.6 °F 66% 30.33 in - North 16.1 mph - N/A   Clear
10:00 PM 44.6 °F 38.8 °F 35.6 °F 71% 30.36 in - North 11.5 mph - N/A   Clear
10:30 PM 44.6 °F 38.8 °F 35.6 °F 71% 30.36 in - North 11.5 mph - N/A   Clear
11:00 PM 44.6 °F 40.2 °F 35.6 °F 71% 30.36 in - North 8.1 mph - N/A   Clear
11:30 PM 42.8 °F 41.1 °F 35.6 °F 76% 30.36 in - North 3.5 mph - N/A   Clear